Location: Unspecified
(0.0000°N, 0.0000°E)
Time: 16:14:48
(UTC+00:00)

Vanguard 2 Rocket - Pass Details

Date: 11 December 2017
Orbit: 554 x 3327 km, 32.9° (Epoch: 21 July)

Event Time Altitude Azimuth Distance (km) Brightness Sun altitude
Rises 20:28:45 0° 294° (WNW) 5,466 11.3 -35.2°
Reaches altitude 10° 20:33:45 10° 311° (NW) 4,948 10.8 -36.3°
Maximum altitude 20:43:31 19° 352° (N) 4,928 10.4 -38.4°
Enters shadow 20:45:13 19° 359° (N) 5,044 10.4 -38.8°
Drops below altitude 10° 20:55:38 10° 31° (NNE) 6,205 - -41.0°
Sets 21:03:24 0° 47° (NE) 7,307 - -42.7°
